Location: Peterborough
(44.3091°N, 78.3197°W)
Time: 05:19:56
(UTC-04:00)

ISS - Visible Passes

Search period start: 16 June 2025 00:00
Search period end: 26 June 2025 00:00
Orbit: 415 x 417 km, 51.6° (Epoch: 15 June)

Date Brightness Start Highest point End Pass type
(mag) Time Alt. Az. Time Alt. Az. Time Alt. Az.
20 Jun -1.8 04:45:32 10° S 04:48:04 20° SE 04:50:37 10° E visible
21 Jun -1.2 03:58:11 10° SSE 03:59:36 12° SE 04:01:01 10° ESE visible
22 Jun -3.3 04:43:56 10° SW 04:47:11 51° SE 04:50:28 10° ENE visible
23 Jun -2.5 03:56:57 20° S 03:58:35 30° SE 04:01:34 10° ENE visible
24 Jun -1.9 03:09:59 18° SE 03:10:01 18° SE 03:12:25 10° E visible
24 Jun -3.5 04:43:06 10° WSW 04:46:26 67° NNW 04:49:47 10° NE visible
25 Jun -3.8 03:55:49 24° SW 03:57:41 78° SSE 04:01:02 10° ENE visible
